• In United Kingdom
  • List of Countries
  • For 7 days
  • Water Temperature
  • Satellite Maps
  • Weather Map
  • Weather Widgets
  • user-avatar
    Login

    Hourly Weather Oran

    Today, 22 February, Thursday

    Time Temperature Precipitation Wind Pressure Humidity
    00:00 +8°C° 0 mm 5 mps 744 mmHg 89%
    01:00 +8°C° 0.4 mm 5 mps 744 mmHg 89%
    02:00 +8°C° 0.4 mm 5 mps 744 mmHg 88%
    03:00 +8°C° 0.4 mm 5 mps 744 mmHg 88%
    04:00 +7°C° 0.1 mm 4 mps 744 mmHg 88%
    05:00 +7°C° 0.1 mm 4 mps 744 mmHg 87%
    06:00 +8°C° 0.1 mm 3 mps 744 mmHg 86%
    07:00 +9°C° 0 mm 3 mps 745 mmHg 80%
    08:00 +10°C° 0 mm 2 mps 745 mmHg 73%
    09:00 +12°C° 0 mm 2 mps 745 mmHg 66%
    10:00 +13°C° 0 mm 2 mps 745 mmHg 61%
    11:00 +13°C° 0 mm 2 mps 745 mmHg 55%
    12:00 +14°C° 0 mm 1 mps 745 mmHg 50%
    13:00 +15°C° 0 mm 2 mps 745 mmHg 48%
    14:00 +14°C° 0 mm 3 mps 744 mmHg 46%
    15:00 +14°C° 0 mm 4 mps 744 mmHg 44%
    16:00 +13°C° 0 mm 4 mps 744 mmHg 51%
    17:00 +12°C° 0 mm 4 mps 744 mmHg 58%
    18:00 +11°C° 0 mm 3 mps 744 mmHg 65%
    19:00 +10°C° 0 mm 3 mps 744 mmHg 68%
    20:00 +10°C° 0 mm 3 mps 745 mmHg 70%
    21:00 +9°C° 0 mm 3 mps 745 mmHg 73%
    22:00 +9°C° 0 mm 3 mps 745 mmHg 73%
    23:00 +9°C° 0 mm 3 mps 745 mmHg 74%

    Tomorrow, 23 February, Friday

    Time Temperature Precipitation Wind Pressure Humidity
    00:00 +9°C° 0 mm 3 mps 745 mmHg 74%
    01:00 +9°C° 0 mm 3 mps 745 mmHg 75%
    02:00 +9°C° 0 mm 3 mps 744 mmHg 75%
    03:00 +8°C° 0 mm 3 mps 744 mmHg 76%
    04:00 +8°C° 0 mm 3 mps 744 mmHg 76%
    05:00 +8°C° 0 mm 3 mps 744 mmHg 77%
    06:00 +8°C° 0 mm 3 mps 744 mmHg 77%
    07:00 +9°C° 0 mm 3 mps 744 mmHg 71%
    08:00 +11°C° 0 mm 3 mps 745 mmHg 65%
    09:00 +12°C° 0 mm 3 mps 745 mmHg 58%
    10:00 +13°C° 0 mm 4 mps 745 mmHg 54%
    11:00 +14°C° 0 mm 4 mps 745 mmHg 49%
    12:00 +15°C° 0 mm 4 mps 744 mmHg 45%
    13:00 +16°C° 0 mm 5 mps 744 mmHg 43%
    14:00 +16°C° 0 mm 5 mps 743 mmHg 41%
    15:00 +17°C° 0 mm 6 mps 743 mmHg 40%
    16:00 +15°C° 0 mm 6 mps 743 mmHg 46%
    17:00 +14°C° 0 mm 6 mps 743 mmHg 52%
    18:00 +11°C° 0 mm 6 mps 743 mmHg 58%
    19:00 +10°C° 0 mm 6 mps 743 mmHg 61%
    20:00 +9°C° 0 mm 5 mps 743 mmHg 64%
    21:00 +9°C° 0 mm 5 mps 744 mmHg 67%
    22:00 +8°C° 0 mm 5 mps 743 mmHg 68%
    23:00 +8°C° 0 mm 4 mps 743 mmHg 69%

    Day after tomorrow, 24 February, Saturday

    Time Temperature Precipitation Wind Pressure Humidity
    00:00 +7°C° 0 mm 4 mps 743 mmHg 71%
    01:00 +7°C° 0 mm 4 mps 743 mmHg 72%
    02:00 +7°C° 0 mm 4 mps 743 mmHg 74%
    03:00 +7°C° 0 mm 4 mps 743 mmHg 76%
    04:00 +7°C° 0 mm 3 mps 743 mmHg 77%
    05:00 +7°C° 0 mm 3 mps 743 mmHg 79%
    06:00 +7°C° 0 mm 3 mps 743 mmHg 80%
    07:00 +8°C° 0 mm 3 mps 743 mmHg 72%
    08:00 +10°C° 0 mm 3 mps 744 mmHg 65%
    09:00 +12°C° 0 mm 3 mps 744 mmHg 57%
    10:00 +13°C° 0 mm 3 mps 744 mmHg 54%
    11:00 +14°C° 0 mm 3 mps 744 mmHg 50%
    12:00 +16°C° 0 mm 3 mps 745 mmHg 47%
    13:00 +16°C° 0 mm 3 mps 745 mmHg 47%
    14:00 +15°C° 0 mm 4 mps 745 mmHg 48%
    15:00 +15°C° 0 mm 4 mps 745 mmHg 49%
    16:00 +14°C° 0 mm 3 mps 745 mmHg 56%
    17:00 +12°C° 0 mm 3 mps 746 mmHg 63%
    18:00 +10°C° 0 mm 2 mps 746 mmHg 70%
    19:00 +10°C° 0 mm 2 mps 747 mmHg 75%
    20:00 +10°C° 0 mm 1 mps 747 mmHg 80%
    21:00 +8°C° 0 mm 0 mps 748 mmHg 85%
    22:00 +8°C° 0 mm 0 mps 748 mmHg 85%
    23:00 +8°C° 0 mm 1 mps 748 mmHg 85%

    25 February, Sunday

    Time Temperature Precipitation Wind Pressure Humidity
    00:00 +8°C° 0 mm 1 mps 748 mmHg 85%
    01:00 +8°C° 0 mm 1 mps 748 mmHg 85%
    02:00 +8°C° 0 mm 1 mps 748 mmHg 85%
    03:00 +8°C° 0 mm 1 mps 748 mmHg 85%
    04:00 +7°C° 0 mm 1 mps 748 mmHg 84%
    05:00 +7°C° 0 mm 1 mps 748 mmHg 84%
    06:00 +7°C° 0 mm 1 mps 748 mmHg 83%
    07:00 +9°C° 0 mm 1 mps 749 mmHg 74%
    08:00 +12°C° 0 mm 1 mps 749 mmHg 64%
    09:00 +14°C° 0 mm 1 mps 749 mmHg 54%
    10:00 +15°C° 0 mm 1 mps 749 mmHg 50%
    11:00 +18°C° 0 mm 1 mps 749 mmHg 47%
    12:00 +19°C° 0 mm 1 mps 749 mmHg 43%
    13:00 +18°C° 0 mm 2 mps 748 mmHg 44%
    14:00 +19°C° 0 mm 2 mps 748 mmHg 44%
    15:00 +19°C° 0 mm 3 mps 747 mmHg 44%
    16:00 +17°C° 0 mm 3 mps 747 mmHg 51%
    17:00 +14°C° 0 mm 3 mps 747 mmHg 57%
    18:00 +13°C° 0 mm 3 mps 747 mmHg 63%
    19:00 +13°C° 0 mm 2 mps 747 mmHg 66%
    20:00 +12°C° 0 mm 2 mps 748 mmHg 68%
    21:00 +12°C° 0 mm 2 mps 748 mmHg 70%
    22:00 +10°C° 0 mm 2 mps 748 mmHg 72%
    23:00 +10°C° 0 mm 2 mps 747 mmHg 73%

    26 February, Monday

    Time Temperature Precipitation Wind Pressure Humidity
    00:00 +10°C° 0 mm 2 mps 747 mmHg 74%
    01:00 +10°C° 0 mm 2 mps 747 mmHg 75%
    02:00 +10°C° 0 mm 1 mps 746 mmHg 76%
    03:00 +10°C° 0 mm 1 mps 746 mmHg 76%
    04:00 +10°C° 0 mm 1 mps 746 mmHg 77%
    05:00 +10°C° 0 mm 1 mps 746 mmHg 78%
    06:00 +10°C° 0 mm 1 mps 745 mmHg 78%
    07:00 +12°C° 0 mm 2 mps 745 mmHg 68%
    08:00 +15°C° 0 mm 2 mps 745 mmHg 58%
    09:00 +17°C° 0 mm 2 mps 745 mmHg 48%
    10:00 +18°C° 0 mm 2 mps 745 mmHg 44%
    11:00 +20°C° 0 mm 2 mps 744 mmHg 41%
    12:00 +21°C° 0 mm 2 mps 744 mmHg 37%
    13:00 +23°C° 0 mm 2 mps 743 mmHg 37%
    14:00 +22°C° 0 mm 3 mps 742 mmHg 36%
    15:00 +22°C° 0 mm 3 mps 741 mmHg 36%
    16:00 +21°C° 0 mm 3 mps 741 mmHg 42%
    17:00 +19°C° 0 mm 3 mps 741 mmHg 49%
    18:00 +17°C° 0 mm 4 mps 741 mmHg 55%
    19:00 +16°C° 0 mm 3 mps 741 mmHg 58%
    20:00 +16°C° 0 mm 2 mps 741 mmHg 61%
    21:00 +15°C° 0 mm 2 mps 742 mmHg 64%
    22:00 +14°C° 0 mm 3 mps 742 mmHg 68%
    23:00 +14°C° 0 mm 5 mps 742 mmHg 71%

    27 February, Tuesday

    Time Temperature Precipitation Wind Pressure Humidity
    00:00 +14°C° 0 mm 6 mps 743 mmHg 75%
    01:00 +12°C° 0.1 mm 7 mps 743 mmHg 78%
    02:00 +12°C° 0.1 mm 8 mps 743 mmHg 81%
    03:00 +12°C° 0.1 mm 9 mps 743 mmHg 83%
    04:00 +12°C° 0.1 mm 10 mps 744 mmHg 83%
    05:00 +12°C° 0.1 mm 10 mps 744 mmHg 82%
    06:00 +12°C° 0.1 mm 11 mps 744 mmHg 81%
    07:00 +12°C° 0 mm 12 mps 745 mmHg 75%
    08:00 +13°C° 0 mm 12 mps 745 mmHg 70%
    09:00 +14°C° 0 mm 13 mps 746 mmHg 64%
    10:00 +15°C° 0 mm 13 mps 746 mmHg 60%
    11:00 +17°C° 0 mm 13 mps 747 mmHg 55%
    12:00 +18°C° 0 mm 12 mps 747 mmHg 50%
    13:00 +18°C° 0 mm 11 mps 747 mmHg 49%
    14:00 +18°C° 0 mm 11 mps 747 mmHg 49%
    15:00 +18°C° 0 mm 10 mps 747 mmHg 48%
    16:00 +16°C° 0 mm 8 mps 747 mmHg 56%
    17:00 +15°C° 0 mm 6 mps 747 mmHg 63%
    18:00 +13°C° 0 mm 5 mps 747 mmHg 70%
    19:00 +12°C° 0 mm 4 mps 748 mmHg 72%
    20:00 +12°C° 0 mm 3 mps 748 mmHg 74%
    21:00 +11°C° 0 mm 3 mps 748 mmHg 76%
    22:00 +12°C° 0 mm 2 mps 748 mmHg 75%
    23:00 +10°C° 0 mm 2 mps 748 mmHg 73%
    Show more